Погода в Ивановке

Россия / Ростовская область     46°11′29″N   41°40′03″E
темп.,
°C
ветер,
м/с
пор.,
м/с
влажн.,
%
обл.,
%
осадки,
мм/ч
давл.,
гПа
погр.,
м
23 июня, ср
ср2300:00+25в51233100 0.0 1012193
03:00+23вюв2535100 0.0 1012100
06:00+22ссв22511 0.0 101336
09:00+28ссв35430 0.0 1012533
12:00+33всв47300 0.0 10111705
15:00+35вюв452711 0.0 10091828
18:00+32юв474632 0.0 1010249
21:00+26ю335716 0.0 101130
24 июня, чт
чт2400:00+24вюв35625 0.0 101278
03:00+21юв3747100 0.0 1013108
06:00+21в345495 0.0 101379
09:00+27св343963 0.0 1014467
12:00+30в5835100 0.3 10131298
15:00+34в37260 1.9 10111946
18:00+32з35435 0.1 1011128
21:00+25з33550 0.1 101137
25 июня, пт
пт2500:00+23ююв22570 0.0 101112
03:00+21вюв11590 0.0 101111
06:00+22в23620 0.0 101166
09:00+28в34445 0.0 1012528
12:00+32в3427100 0.0 10111420
15:00+34в35222 0.0 10102022
18:00+32с22404 0.3 100960
21:00+25зсз46473 0.4 100963
26 июня, сб
сб2600:00+22зсз46580 0.0 100778
03:00+20з456189 0.0 100777
06:00+20зюз467260 0.0 1008165
09:00+26з5660100 0.0 1009532
12:00+29з4450100 0.0 10091025
15:00+31з4446100 0.0 10091267
18:00+30з56532 0.0 1009715
21:00+24зсз36739 0.0 100995
27 июня, вс
вс2700:00+21з5108893 0.0 1010207
03:00+20зюз41086100 0.0 1010242
06:00+21зюз5108699 0.3 1011354
09:00+25з686789 0.3 1011700
12:00+29з6654100 0.0 10111198
15:00+30з6649100 0.0 10111557
18:00+29зюз4657100 0.0 1011475
21:00+25зюз336716 0.0 101140